Starlink 34867

operational
NORAD ID: 65459 Int'l Des: 2025-195 Owner: SPXS Country: US Constellation: starlink
LEOCIRCULAR

Starlink 34867について

説明を読み込み中...

リアルタイム位置

3D地球を読み込み中...

次回通過

高度履歴

Altitude vs Time

uPlot chart will show altitude changes over time

軌道要素

1 65459U 25195B 25294.40748576 .00058632 00000-0 14630-2 0 9994
2 65459 53.1595 186.9298 0002103 74.7744 285.3493 15.39651437 8647
Epoch: Oct 21, 2025 • Age: 12 hours

現在のステータス

高度 447.7 km
速度 7.64 km/s
衛星直下点 3.66°N, 9.69°E
打ち上げ日 Sep 3, 2025
運用期間 0.1 years
タイプ internet

技術仕様

分類 Payload
質量 575.00 kg
乾燥質量 530.00 kg
総質量 575.00 kg
長さ 0.30 m
直径 4.10 m
スパン 29.00 m
形状 Box + pan
製造者 SPXS
バスタイプ Starlink V2MO
フェーズステータス In Orbit
所有者/国 SPXS/US

大規模コンステレーション

Loading constellations...